Skip Page Navigation
NASA JPL Caltech
NASA Logo - Jet Propulsion Laboratory + View the NASA Portal
+ Center for Near-Earth Object Studies
JPL Home Earth Solar System Stars & Galaxies Technology
JPL Solar System Dynamics
BODIES ORBITS EPHEMERIDES TOOLS PHYSICAL DATA DISCOVERY FAQ SITE MAP
JPL Small-Body Database Browser
Search: [ help ]  
74515 (1999 FL28)
Classification: Main-belt Asteroid          SPK-ID: 2074515
Ephemeris | Orbit Diagram | Orbital Elements | Mission Design | Physical Parameters | Discovery Circumstances | Close-Approach Data ]

[ show orbit diagram ]
Orbital Elements at Epoch 2459000.5 (2020-May-31.0) TDB
Reference: JPL 18 (heliocentric ecliptic J2000)
 Element Value Uncertainty (1-sigma)   Units 
e .08037294546240963 4.7774e-08  
a 3.070700068976461 2.0888e-08 au
q 2.823898859801198 1.5013e-07 au
i 10.79773049758327 6.3115e-06 deg
node 353.3934353376881 2.004e-05 deg
peri 140.1002646845549 3.9838e-05 deg
M 31.67975563013233 3.2552e-05 deg
tp 2458827.544711094518
(2019-Dec-10.04471109)
0.00017784 TDB
period 1965.416170911087
5.38
2.0054e-05
5.49e-08
d
yr
n .1831673135329494 1.869e-09 deg/d
Q 3.317501278151723 2.2567e-08 au
  Orbit Determination Parameters
   # obs. used (total)      1166  
   data-arc span      7711 days (21.11 yr)  
   first obs. used      1999-03-19  
   last obs. used      2020-04-28  
   planetary ephem.      DE431  
   SB-pert. ephem.      SB431-N16  
   condition code      0  
   norm. resid. RMS      .54894  
   source      ORB  
   producer      Otto Matic  
   solution date      2020-May-20 14:06:00  

Additional Information
 Earth MOID = 1.84629 au 
 Jupiter MOID = 1.70488 au 
 T_jup = 3.199 
[ hide covariance matrix ]
Orbital Elements at Epoch 2457079.5 (2015-Feb-26.0) TDB
Reference: JPL 18 (heliocentric ecliptic J2000)
 Element Value Uncertainty (1-sigma)   Units 
e .08188388175614324 4.7878e-08  
q 2.819176887288154 1.5089e-07 au
tp 2456863.953300983404
(2014-Jul-25.45330098)
0.00017622 TDB
node 353.4164444692066 2.0039e-05 deg
peri 140.4394003778976 3.9156e-05 deg
i 10.79912411234602 6.3119e-06 deg
  Orbit Determination Parameters
   # obs. used (total)      1166  
   data-arc span      7711 days (21.11 yr)  
   first obs. used      1999-03-19  
   last obs. used      2020-04-28  
   planetary ephem.      DE431  
   SB-pert. ephem.      SB431-N16  
   condition code      0  
   norm. resid. RMS      .54894  
   source      ORB  
   producer      Otto Matic  
   solution date      2020-May-20 14:06:00  

Additional Information
 Jupiter MOID = 1.70488 au 
 T_jup = 3.199 
Orbit Covariance (6×6)
  e q tp node peri i
e 2.292292328958819E-15 -7.167123872460648E-15 4.224970717895844E-12 3.295706179306624E-15 8.155943913692123E-13 -2.322539431489232E-15
q -7.167123872460648E-15 2.276723815051268E-14 -1.364007345730859E-11 -1.000807153447857E-14 -2.623613026057945E-12 6.960086401730897E-15
tp 4.224970717895844E-12 -1.364007345730859E-11 3.105475913975081E-8 3.199899192546715E-12 5.938470016796249E-9 7.973114797826766E-12
node 3.295706179306624E-15 -1.000807153447857E-14 3.199899192546715E-12 4.015482088758164E-10 -3.933019849883643E-10 3.518648978840592E-12
peri 8.155943913692123E-13 -2.623613026057945E-12 5.938470016796249E-9 -3.933019849883643E-10 1.533155683100236E-9 -1.953947452049848E-12
i -2.322539431489232E-15 6.960086401730897E-15 7.973114797826766E-12 3.518648978840592E-12 -1.953947452049848E-12 3.984027727387784E-11

Ephemeris | Orbit Diagram | Orbital Elements | Mission Design | Physical Parameters | Discovery Circumstances | Close-Approach Data ]

Physical Parameter Table
Parameter Symbol Value Units Sigma Reference Notes
absolute magnitude H 13.8   n/a MPO337819  
diameter diameter 6.934 km 0.165 urn:nasa:pds:neowise_diameters_albedos::2.0[mainbelt] (http://adsabs.harvard.edu/abs/2011ApJ...741...68M)  
geometric albedo albedo 0.164   0.039 urn:nasa:pds:neowise_diameters_albedos::2.0[mainbelt] (http://adsabs.harvard.edu/abs/2011ApJ...741...68M)  

74515 (1999 FL28)          Discovered 1999-Mar-19 by LINEAR at Socorro
Reference: 20040415/Numbers.arcLast Updated: 2004-04-19

[ hide close-approach data ]
Close-Approach Data   ...sorted by Date/Time (TDB)
Date/Time (TDB) Time Uncertainty
(days_HH:MM)
Body Nominal Distance (au) Minimum Distance (au) Maximum Distance (au) V-relative (km/s) V-infinity (km/s) JD (TDB) Time Uncertainty (minutes) Semi-major axis (km) Semi-minor axis (km) range-LOV angle (deg) N-sigma BP Orbit Ref. Reference Modified
1915-May-27 21:41 00:03 Jupiter 1.71639628850937 1.71639574349243 1.71639683352641 3.71649159762671 3.58124726818686 2420645.403190808 3.10137244168317 283.269004047955 24.5958467781758 89.4189017343503 2245277.67313964 T 18 CATAB v2.0f-lin.ifort 2020-May-20 14:06:18 2020-May-20 14:06
1974-Aug-17 01:32 00:01 Jupiter 1.71610994768925 1.71610940463862 1.71611049074036 3.69708253813776 3.56107804080364 2442276.563557766 1.25127826094212 195.269575358908 22.0828344402005 86.8800610438309 2410460.76287123 T 18 CATAB v2.0f-lin.ifort 2020-May-20 14:06:18 2020-May-20 14:06
2033-Nov-05 20:37 < 00:01 Jupiter 1.71863567503474 1.71863514970064 1.71863620036971 3.68116751509974 3.54475704518651 2463907.358747390 0.637297042348629 193.774687461904 19.7284278092878 86.2020183441508 2427809.11516917 T 18 CATAB v2.0f-lin.ifort 2020-May-20 14:06:18 2020-May-20 14:06
2093-Jan-24 18:12 00:02 Jupiter 1.72400057295521 1.72399992813383 1.72400121777699 3.66842707647611 3.53195877859187 2485537.258680392 2.46595168084143 187.845341859667 29.1310855908062 86.4827376401534 2466576.47099739 T 18 CATAB v2.0f-lin.ifort 2020-May-20 14:06:18 2020-May-20 14:06
2152-Apr-14 08:26 00:04 Jupiter 1.73241056651951 1.73240949834129 1.7324116346994 3.65884601387112 3.52268362265154 2507165.851591876 4.35737327636086 188.858196334048 45.4700258483598 80.4193688971852 2457396.46238437 T 18 CATAB v2.0f-lin.ifort 2020-May-20 14:06:18 2020-May-20 14:06

Alternate Designations
 1999 FL28 = 1999 GX51 = 2001 QO18 
Ephemeris | Orbit Diagram | Orbital Elements | Mission Design | Physical Parameters | Discovery Circumstances | Close-Approach Data ]
ABOUT SSD CREDITS/AWARDS PRIVACY/COPYRIGHT GLOSSARY LINKS
FirstGov 2020-Sep-24 09:42 UT
(server date/time)  
NASA Home Page
Site Manager:   Ryan S. Park
Webmaster  Alan B. Chamberlin